COSMOS 2251 DEB, 33811

Orbit data source: Space-Track

COSMOS 2251 DEB, 33811 is space debris in LEO originally from a launch on Wed, 16 Jun 1993 UTC launched from the Plesetsk Missile And Space Complex (PKMTR). The debris from Iridium 33, an American commercial communications satellite, has been tracked extensively since its accidental collision with the defunct Russian satellite Cosmos 2251 in 2009. This event, occurring at high speed in low Earth orbit (LEO), generated thousands of pieces of space debris, significantly increasing the risk of further collisions. The Iridium 33 debris cloud has impacted space traffic management and orbital debris mitigation strategies, making it a subject of ongoing study in space situational awareness.

Loading next visibility...
Identifier
33811, 1993-036BC
Orbit
LEO
Country
Flag of CISCIS
Related business
Manufacturer
Unknown
Mission
Spacecraft
Bus & Motor
Unknown
Mass
Unknown
Launch date (UTC)
1993-06-16 (33 years ago)
Launch vehicle
Unknown
Launch site
Plesetsk Missile And Space Complex (PKMTR)
Object type
Payload
Rocket body
Debris
Shape & HBR
Unknown shape, 0.3 m
Radar Cross Section
Medium (>0.1 m² and <1 m²)

Expand to show TLE details & history
Last TLE update: 20 hours ago

TLE from 20 hours ago
0 COSMOS 2251 DEB
1 33811U 93036BC  25354.24951095  .00011039  00000-0  76176-3 0  9995
2 33811  73.8378 287.0789 0030845   6.6191 154.8287 15.05474217901313
Epoch: 2025-12-20T05:59Z
TLE epoch observation values (Epoch: 2025-12-20T05:59:17.746Z)
Latitude
17.64708°
Longitude
-77.08504°
Altitude
571.497 km
Speed
7.566 km/s
True Right ascension
06h 47m 16s
True Declination
17° 32' 43"
Sunlit
Object was in full shadow at epoch
Visualization orbit readout
Latitude
Unknown
Longitude
Unknown
Altitude
Unknown
Speed
Unknown
Apparent Right ascension
Unknown
Apparent Declination
Unknown
Sunlit
N/A
Visualization observer readout
Local Sidereal Time
01:06:45
Azimuth
Unknown
Elevation
Unknown
Doppler factor
Unknown
Orbital elements
Apogee altitude
568.978 km
Perigee altitude
526.253 km
Semi-major axis
6,925.753 km
Eccentricity
0.00308
Inclination
73.8378°
RAAN
287.0789°
Arg. of periapsis
6.6191°
True anomaly
154.97851°
Mean anomaly
154.8287°
Eccentric anomaly
154.90366°
Mean motion
3.76567 °/min
Orbital period
95.6 mins
BSTAR
0.00076176
Loading maneuver chart data...
Computing Atmospheric mass density...
Loading historical data...
Loading historical data...
Loading historical data...
Loading historical data...
Loading historical data...
Loading historical data...
Loading historical data...

Documentation

Showing up to 5 results
|